Regional Weather Roundup
Issued by NWS

Home | Current Version | Previous Version | Graphics & Text | Print | Product List | Glossary On
Versions: 1 2 3 4 5 6 7 8 9 10 11 12 13 14 15 16 17 18 19 20 21 22 23 24 25 26 27 28 29 30 31 32 33 34 35 36 37 38 39 40 41 42 43 44 45 46 47 48 49 50
000
ASUS43 KMKX 232211
RWRWI

WISCONSIN REGIONAL WEATHER ROUNDUP
NATIONAL WEATHER SERVICE MILWAUKEE/SULLIVAN WI
500 PM CDT TUE SEP 23 2014

NOTE: "FAIR" INDICATES FEW OR NO CLOUDS BELOW 12,000 FEET WITH NO
SIGNIFICANT WEATHER AND/OR OBSTRUCTIONS TO VISIBILITY.

WIZ001-002-006>008-014>016-023>028-232300-
NORTHWEST WISCONSIN

CITY           SKY/WX    TMP DP  RH WIND       PRES   REMARKS
SUPERIOR ARPT  MOSUNNY   70  53  54 S7        30.14F
ASHLAND        SUNNY     74  53  48 S7        30.18S
HAYWARD        SUNNY     71  49  45 S13       30.19F
SIREN          MOSUNNY   73  48  41 S8        30.17R
CUMBERLAND     PTCLDY    70  45  40 S9        30.19S
RICE LAKE      MOSUNNY   71  48  44 SE12      30.20S
CHETEK         PTCLDY    71  52  51 S8        30.19F
LADYSMITH      SUNNY     69  51  52 S5        30.22F
EAU CLAIRE     MOSUNNY   71  51  49 S10       30.19F
MENOMONIE      PTCLDY    71  52  51 SE9       30.18F
NEW RICHMOND   PTSUNNY   72  51  47 S8        30.18S
OSCEOLA        PTSUNNY   72  51  47 S13       30.19S
$$

WIZ003>005-009-010-017-018-232300-
NORTH CENTRAL WISCONSIN

CITY           SKY/WX    TMP DP  RH WIND       PRES   REMARKS
MANITOWISH WTR CLEAR     72  49  44 S9        30.21F
ARBOR VITAE    SUNNY     72  47  41 S9        30.22S
WOODRUFF       SUNNY     72  47  41 S9        30.22S
RHINELANDER    SUNNY     71  49  45 S8        30.24F
EAGLE RIVER    SUNNY     72  44  36 SW5       30.22F
LAND O LAKES   SUNNY     73  45  36 SW3       30.23F
PHILLIPS       MOSUNNY   71  50  47 S9        30.21S
TOMAHAWK       SUNNY     71  49  45 CALM      30.24R
MEDFORD        SUNNY     69  52  54 S6        30.23F
MERRILL        SUNNY     72  52  48 SW7       30.23S
$$

WIZ029-030-035-036-043>047-232300-
CENTRAL WISCONSIN

CITY           SKY/WX    TMP DP  RH WIND       PRES   REMARKS
WAUSAU         SUNNY     72  51  47 S5        30.23S
MOSINEE        SUNNY     72  54  53 S7        30.25S
MARSHFIELD     SUNNY     72  50  45 S7        30.23S
STEVENS POINT  SUNNY     71  49  45 S7        30.25S
WAUPACA        SUNNY     75  51  41 S6        30.24S
WAUTOMA        SUNNY     75  51  42 S6        30.24F
WISC RAPIDS    SUNNY     72  49  44 SW7       30.25S
CAMP DOUGLAS   MOSUNNY   70  54  56 SE5       30.24S
$$

WIZ011>013-019>022-031-037>040-048>050-232300-
NORTHEAST WISCONSIN

CITY           SKY/WX    TMP DP  RH WIND       PRES   REMARKS
ANTIGO         SUNNY     70  51  50 SW7       30.25S
SHAWANO        CLEAR     75  50  41 SW3       30.24S
OCONTO         CLEAR     71  54  55 S7        30.23S
STURGEON BAY   SUNNY     66  54  63 S10       30.26S
GREEN BAY      SUNNY     73  54  51 S7        30.24F
MANITOWOC      SUNNY     67  52  58 S7        30.26F
APPLETON       MOSUNNY   72  52  49 SE7       30.25F
CLINTONVILLE   SUNNY     73  48  40 SW7       30.23F
OSHKOSH        SUNNY     74  53  48 S3        30.24F
$$

WIZ032>034-041-042-053>061-232300-
SOUTHWEST WISCONSIN

CITY           SKY/WX    TMP DP  RH WIND       PRES   REMARKS
LA CROSSE      MOSUNNY   75  50  41 S14       30.20F
SPARTA         MOSUNNY   70  49  47 S6        30.24S
VIROQUA        PTCLDY    72  47  42 S8        30.24S
BOSCOBEL       SUNNY     75  48  38 VRB6      30.23F
PRAIRIE DU CHI SUNNY     73  44  35 SE5       30.22S
PLATTEVILLE    MOSUNNY   72  47  41 S10       30.25F
$$

WIZ056-057-062-063-064-067-068-232300-
SOUTH CENTRAL WISCONSIN

CITY           SKY/WX    TMP DP  RH WIND       PRES   REMARKS
REEDSBURG      CLEAR     71  53  52 S7        30.24S
BARABOO/DELLS  SUNNY     71  46  41 SW7       30.25S
LONE ROCK      MOSUNNY   77  48  35 S8        30.24F
MINERAL POINT  SUNNY     73  45  35 S3        30.25F
MADISON        MOSUNNY   72  47  40 S9        30.25F
MIDDLETON      CLEAR     73  45  37 SW8       30.25F
WATERTOWN      SUNNY     72  50  44 SW3       30.26S
MONROE         MOSUNNY   72  46  40 S7        30.26S
JANESVILLE     SUNNY     73  46  38 SE9       30.26F
$$

WIZ051-052-058>065-066-070>072-232300-
SOUTHEAST WISCONSIN

CITY           SKY/WX    TMP DP  RH WIND       PRES   REMARKS
MILWAUKEE      MOSUNNY   69  51  52 SE10      30.27S
WAUKESHA       SUNNY     70  48  46 SW9       30.28S
MILWAUKEE/TIMM SUNNY     73  43  33 CALM      30.26F
RACINE         SUNNY     68  49  50 S10       30.29S
BURLINGTON     SUNNY     72  47  41 S3        30.27S
KENOSHA        SUNNY     69  51  52 SE12      30.28S
FOND DU LAC    SUNNY     73  50  44 SW5       30.25F
SHEBOYGAN      SUNNY     70  52  52 S9        30.26S
WEST BEND      SUNNY     72  46  40 CALM      30.25F
JUNEAU         SUNNY     72  50  46 S8        30.27S
$$

LSZ147-162-232300-
LAKE SUPERIOR

STATION/POSITION TIME  TEMP    WIND        PRES    WAVE
                       AIR SEA DIR/SP/G            HT/PER
                 (UTC) (F)     (DEG/KT/KT) (MB)    (FT/S)
W MID LAKE BUOY  2150   57 51  320/  4/  6 1021.9F   1
DEVILS ISLAND    2200   62      90/  8/  8 1021.6F
PORT WING        2140   65      30/  7/  9 1021.0F
SAXON HARBOR     2100   65      CALM  /  3 1021.7F
$$

LMZ867-665-643>646-232300-
LAKE MICHIGAN

STATION/POSITION TIME  TEMP    WIND        PRES    WAVE
                       AIR SEA DIR/SP/G            HT/PER
                 (UTC) (F)     (DEG/KT/KT) (MB)    (FT/S)
CHAMBERS ISLAND  2100   69     180/  4/ 11 1024.0F
S GREEN BAY BUOY 2200   65                 1024.8F
N MID LAKE BUOY  2150   59 58  200/ 10/ 12 1024.7R   1/ 3
NORTHPORT PIER   2100   68     150/  7/  9 1023.7F
SISTER BAY       2027          220/  9/ 12   N/A
KEWAUNEE LAKESHO 2100   56     180/  9/ 10 1023.9
SHEBOYGAN LAKESH 2200   62 53  180/ 16/ 16 1025.0F
PORT WASHINGTON  2100   67     190/  4/  6 1025.4
ATWATER BUOY     2200   61     150/ 12/ 14 1025.7F
S MID LAKE BUOY  2150   63 62  170/  6/  8 1025.9F   1
KENOSHA   LAKESH 2200   62     180/ 12/ 13 1024.7F
$$

TC  - TEMPERATURE IN CELSIUS
VSB - VISIBILITY IN STATUTE MILES
WCI - WIND CHILL INDEX
HX  - HEAT INDEX




USA.gov is the U.S. government's official web portal to all federal, state and local government web resources and services.